Wind_Speed
5 1 3 4 4 4 6 6 7 8 10 11 12 13 14 15 14 15 15 14 13 11 11 11 10 8 7 8 8 6 5 4 2 3 8 8 9 9 10 11 12 13 15
2 4 4 5 5 5 5 6 6 7 9 9 10 10 10 11 12 12 12 12 11 10 9 10 8 6 4 4 5 5 5 5 3 6 8 8 8 8 10 10 12 14 17
8 6 5 5 6 6 6 6 5 5 7 7 7 8 8 8 9 9 10 10 8 7 7 7 8 6 5 3 3 3 4 5 6 8 8 10 9 9 10 12 12 14 15
11 8 5 5 6 6 6 6 6 5 5 6 5 5 5 6 7 8 8 8 7 6 5 5 5 5 4 3 3 3 4 6 10 12 10 10 11 10 13 13 14 15 16
13 11 10 8 7 7 7 7 7 6 5 5 4 2 2 3 4 5 6 7 7 6 5 5 6 6 5 4 3 4 6 9 10 12 10 11 12 13 14 15 17 17 18
16 13 12 11 11 9 9 8 8 7 6 6 4 2 1 3 4 5 5 5 5 5 5 5 6 6 6 5 5 7 8 10 12 11 11 11 13 15 16 17 16 15 17
18 18 19 18 15 12 12 12 12 11 10 8 7 4 3 4 5 6 7 6 6 5 5 5 6 7 7 6 7 9 10 11 11 11 11 11 14 15 14 15 14 14 12
22 22 18 18 17 14 13 13 13 13 13 12 11 8 5 5 7 8 8 8 8 7 6 6 6 7 8 7 9 11 12 13 12 11 13 13 15 16 15 17 16 15 16
29 27 26 25 23 20 18 17 14 15 14 13 12 12 11 9 8 9 10 10 10 10 8 8 8 9 9 9 10 13 14 15 14 11 14 14 15 17 16 18 17 17 18
30 29 27 27 25 26 25 22 19 16 16 15 14 13 13 12 11 11 12 12 13 13 12 11 11 11 11 10 12 14 15 17 17 15 13 15 14 17 16 19 20 19 19
27 27 26 25 24 23 23 21 20 18 15 15 16 16 16 15 13 13 15 15 14 14 14 14 13 13 13 12 13 15 17 19 20 19 17 17 15 17 17 19 19 20 21
24 24 24 23 23 22 22 22 20 19 16 15 14 13 14 16 16 14 15 17 17 16 17 16 16 15 15 15 15 16 19 21 21 21 19 18 17 17 19 21 19 20 21
18 20 23 23 23 22 22 22 22 21 19 18 17 16 14 14 14 17 15 17 20 20 20 19 19 19 19 19 18 18 19 20 22 24 22 20 21 21 20 20 21 21 22
19 19 20 23 22 22 22 23 22 22 23 22 21 19 18 17 14 14 17 19 19 22 24 23 23 23 22 23 21 20 20 21 23 24 22 21 19 21 21 21 21 23 22
20 20 21 22 22 23 23 23 23 23 23 24 24 23 21 19 18 17 15 15 21 22 25 28 27 27 27 26 25 24 23 23 24 26 23 21 21 24 24 23 22 22 22
19 20 18 21 22 22 23 24 24 24 23 24 25 25 24 21 19 19 19 18 17 21 24 27 32 30 30 29 28 27 26 25 26 28 26 23 25 25 26 25 24 23 23
16 17 22 22 22 22 23 24 25 25 25 27 27 26 25 23 23 22 21 22 21 17 23 25 28 34 33 31 29 29 28 28 28 30 29 26 25 26 29 28 30 28 26
16 21 20 18 19 20 22 24 24 25 26 29 28 28 25 25 23 24 25 24 24 25 20 25 28 28 29 33 34 31 31 31 30 29 31 29 28 29 30 31 29 28 27
19 19 18 18 20 22 25 26 26 25 29 28 27 27 25 26 24 25 27 27 24 25 26 24 26 29 26 26 33 33 33 31 32 31 33 32 31 30 32 32 31 30 29
18 17 17 20 24 26 29 31 29 29 31 28 27 25 28 27 25 25 27 27 26 25 26 28 27 26 30 29 30 32 31 31 30 33 32 34 32 30 31 33 33 31 29
18 17 18 22 26 28 31 32 32 28 29 29 25 28 27 26 24 23 24 24 22 23 25 27 31 26 26 28 21 15 21 23 25 27 33 34 34 31 30 33 36 34 32
17 19 21 23 24 23 25 25 19 23 19 24 20 25 25 26 27 24 22 23 23 23 23 26 25 27 26 25 17 6 5 11 24 29 25 28 33 33 32 33 36 37 36
20 22 22 22 21 20 23 26 26 21 20 19 24 24 24 25 24 25 24 24 25 24 24 24 25 27 25 27 33 13 4 6 5 16 28 26 26 29 30 32 36 37 37
18 20 20 22 22 21 23 27 25 19 20 23 23 24 28 24 23 24 24 25 26 25 25 26 25 28 27 28 25 37 28 10 5 4 16 28 29 30 30 30 33 35 36
20 22 21 22 22 23 25 24 23 23 22 23 23 25 24 25 25 25 23 24 25 26 26 26 29 28 31 31 32 24 30 22 20 3 5 10 24 30 32 33 32 35 36
17 20 21 24 26 27 26 26 25 24 24 23 25 25 27 30 27 24 26 27 28 29 28 28 28 32 34 34 39 38 31 20 17 9 3 10 14 22 28 30 32 33 35
Wind_Direction
354 196 139 98 88 97 103 101 100 104 106 106 109 115 126 133 136 137 142 144 147 155 165 164 168 158 146 139 145 159 207 230 223 204 158 151 146 149 143 144 149 144 140
34 133 112 89 69 70 82 91 93 98 98 100 105 111 117 127 135 138 140 143 150 163 168 171 178 188 187 163 167 183 214 231 211 165 164 170 166 159 146 147 144 142 136
78 86 78 67 57 58 65 78 84 90 96 101 106 113 122 133 140 142 142 143 149 156 163 179 189 212 239 250 216 209 213 210 173 148 159 167 165 173 161 154 148 144 140
64 61 66 69 58 50 47 57 62 61 73 84 94 110 129 144 153 154 153 150 154 165 181 197 192 204 218 241 252 219 188 172 159 164 165 159 154 152 148 143 145 145 140
67 60 56 42 36 38 41 46 47 47 47 58 59 76 137 169 178 177 173 171 168 172 195 213 212 223 225 233 232 219 186 178 181 177 175 167 165 159 159 153 151 145 145
63 55 45 37 33 32 35 36 39 35 33 33 28 4 294 227 217 213 202 198 197 190 204 223 227 227 226 218 205 219 203 195 182 181 181 176 170 167 164 166 165 160 152
64 58 52 44 38 37 36 28 23 21 19 15 9 353 298 268 252 243 236 221 221 226 223 221 232 236 233 222 208 217 214 205 192 195 193 189 180 179 181 178 168 170 163
72 68 63 57 54 51 42 32 25 22 20 13 1 346 318 276 260 256 253 248 238 239 239 235 237 241 241 228 218 222 219 210 207 207 196 196 199 200 197 188 173 169 159
74 71 66 62 59 60 54 44 31 21 10 5 359 350 334 309 274 257 259 260 254 250 244 242 240 240 240 232 225 229 224 218 220 209 206 217 216 214 207 192 175 165 183
70 67 61 58 56 53 49 43 33 29 26 16 6 353 336 322 304 279 263 260 260 258 254 250 247 244 240 233 229 233 231 226 218 226 231 213 217 219 214 199 177 172 185
61 56 53 50 46 41 36 33 33 31 15 7 1 356 352 338 317 299 285 272 263 262 261 258 252 248 246 239 232 232 234 235 224 225 225 216 228 224 214 201 183 178 185
51 46 46 42 36 30 26 22 19 17 17 13 3 353 342 330 333 309 293 285 272 261 260 261 258 251 245 242 238 232 233 238 234 222 218 231 232 225 214 203 189 188 190
57 46 40 37 31 25 21 16 12 12 9 3 360 352 344 333 318 321 309 286 280 269 259 257 255 250 246 245 242 237 238 237 234 228 230 237 246 227 214 203 196 194 195
52 44 37 33 30 26 19 15 11 5 3 1 359 357 349 338 326 315 312 307 294 275 267 258 254 253 248 248 246 243 241 238 238 233 236 241 234 215 211 203 199 200 200
46 37 31 26 25 20 17 13 9 4 359 357 357 356 352 344 331 318 303 301 297 292 277 264 256 250 249 250 248 244 240 240 238 238 239 239 223 218 218 209 206 203 199
41 31 24 22 19 15 12 9 5 1 358 356 354 352 349 343 334 321 306 293 285 289 287 277 263 253 248 249 249 245 244 239 239 239 242 238 222 220 217 214 207 205 201
38 28 27 18 13 12 11 7 3 1 357 356 354 352 349 344 337 329 318 305 287 278 285 282 275 261 251 246 248 248 247 242 239 242 243 235 228 221 218 222 214 204 203
30 30 23 17 14 15 13 9 4 1 356 354 353 352 352 348 344 336 329 315 301 285 278 273 267 255 248 244 245 244 244 246 243 240 243 237 229 228 226 224 222 206 205
25 23 16 12 13 14 12 8 5 2 358 355 353 351 351 346 344 339 335 325 314 298 280 275 254 250 247 240 240 243 242 241 246 240 241 239 236 238 227 226 218 208 206
24 20 9 10 12 13 9 3 1 1 356 354 351 349 346 344 342 337 330 323 320 309 296 275 278 244 240 240 237 237 237 235 240 240 238 240 236 234 232 226 217 211 212
19 15 11 11 14 11 8 3 354 350 351 348 350 347 343 341 337 336 326 318 311 302 294 291 277 282 236 233 225 235 234 231 229 235 237 239 236 234 229 224 219 211 211
8 8 10 15 12 11 5 0 345 338 337 339 338 334 336 332 334 332 322 313 308 302 295 291 282 277 259 233 214 192 212 232 236 233 227 228 233 232 227 224 221 219 216
10 7 10 9 9 7 4 1 354 346 343 342 334 327 323 320 326 323 317 305 304 301 289 286 288 278 279 236 223 208 197 222 194 213 222 223 219 224 222 219 223 223 222
8 8 9 9 9 5 5 3 353 341 332 323 321 318 319 320 325 323 316 307 298 300 288 283 282 278 276 271 230 226 227 186 189 178 207 217 218 222 221 215 215 217 222
12 8 8 8 11 9 6 0 348 338 328 320 319 323 326 330 325 320 320 310 301 294 292 282 279 274 267 267 258 232 223 216 197 154 197 192 207 215 219 214 212 217 218
14 7 7 7 11 8 5 358 350 336 329 328 329 329 333 329 322 321 322 314 307 293 289 283 275 271 266 264 264 244 229 213 207 198 153 185 198 208 214 216 216 216 219
Height
787 787 788 789 791 791 791 791 792 792 791 791 791 791 792 792 793 793 793 794 794 796 797 799 800 800 800 799 799 800 800 802 801 801 802 803 803 803 803 804 805 806 807
787 790 791 791 792 793 793 793 794 794 793 793 794 794 795 796 797 796 795 796 796 797 798 798 800 801 801 800 799 799 800 801 801 802 803 804 805 806 805 806 807 808 809
791 792 793 793 794 794 794 794 795 795 795 795 795 795 796 797 797 797 798 798 798 798 798 799 799 801 802 802 801 800 800 801 802 803 804 805 806 807 806 808 809 810 811
793 793 794 794 794 795 796 796 796 798 798 797 797 797 798 799 799 798 798 798 799 799 799 800 799 800 801 802 803 802 802 803 803 804 805 806 807 808 808 809 811 811 812
795 796 797 797 796 797 798 798 798 799 799 798 798 799 800 800 800 800 799 799 799 799 799 800 799 799 800 801 802 802 802 803 804 804 806 806 807 808 809 810 811 813 813
797 798 799 798 797 800 798 799 800 800 799 799 799 800 801 801 801 801 800 800 799 798 799 800 800 800 800 800 801 802 803 803 804 805 806 807 808 809 810 810 812 814 815
799 800 799 799 800 800 800 802 801 801 800 799 799 800 801 801 801 801 800 800 799 799 799 799 799 800 800 800 801 801 802 804 805 805 806 807 808 810 810 811 812 814 816
801 802 802 802 801 801 801 801 801 800 800 800 800 800 800 799 800 800 801 800 799 798 798 799 799 799 799 800 800 800 801 803 804 805 806 806 808 809 810 811 812 814 817
804 803 803 803 802 802 801 801 800 801 800 800 800 800 800 800 799 799 799 799 799 798 797 797 797 798 798 799 800 800 800 802 804 804 805 805 806 808 809 810 811 813 816
805 805 804 803 803 802 801 801 801 801 801 801 800 799 799 799 799 798 797 797 797 797 797 796 796 796 797 797 798 799 799 800 801 802 803 804 805 806 807 809 809 811 816
807 806 805 804 803 802 802 802 802 801 800 800 799 798 798 797 796 796 796 795 795 795 796 795 794 795 795 795 795 797 798 798 798 800 801 803 804 805 807 808 810 811 814
809 808 806 804 803 802 801 801 801 800 799 798 798 797 796 795 794 793 793 793 793 793 793 794 794 793 793 792 793 793 794 796 796 797 798 800 802 804 805 806 809 810 813
814 812 807 804 803 802 801 800 799 798 798 796 796 794 793 792 791 790 790 789 790 790 790 790 791 791 791 790 790 790 791 792 793 794 795 797 798 801 803 805 807 809 812
813 813 809 805 803 802 800 799 798 797 795 794 793 792 790 788 787 787 786 786 785 786 786 786 787 788 788 787 787 787 787 788 790 790 792 794 795 798 800 803 805 808 811
812 811 809 806 803 801 799 797 796 795 793 792 791 789 788 786 784 783 782 782 781 781 781 782 782 782 783 783 783 784 784 784 785 787 788 790 791 795 798 801 803 807 809
812 811 810 806 803 800 797 796 795 794 792 790 788 786 784 783 782 780 778 777 777 777 776 777 777 777 777 778 778 779 779 780 781 783 785 787 789 791 795 798 800 802 807
814 813 807 804 802 799 798 796 793 791 790 787 785 783 782 780 777 776 774 773 772 772 772 771 772 772 771 772 772 773 775 776 776 779 781 783 786 788 790 794 794 798 804
816 809 809 808 806 801 797 793 791 789 787 785 782 780 779 778 775 772 770 769 768 767 766 765 766 766 766 765 765 766 768 770 771 773 776 778 781 783 786 788 793 793 800
814 811 811 810 804 798 793 791 788 786 786 784 782 780 777 775 773 771 767 765 763 761 760 760 757 758 760 760 758 759 760 763 764 766 769 772 776 778 781 784 788 792 796
814 813 812 808 801 794 789 788 786 784 783 783 781 779 777 773 771 769 766 763 761 757 755 755 754 750 751 753 754 753 754 755 757 759 762 766 769 773 776 780 784 787 792
814 812 808 803 797 793 788 787 785 784 782 782 780 778 775 772 768 765 763 761 757 754 752 752 749 746 743 745 750 752 750 751 751 752 755 758 761 766 769 774 778 781 785
817 813 806 798 795 795 795 792 791 787 783 780 778 776 772 769 765 761 760 757 755 750 748 746 746 743 737 740 740 745 746 748 744 745 747 751 755 759 763 767 772 776 779
814 809 804 802 798 797 795 791 788 784 780 777 774 771 769 765 761 758 755 752 750 747 745 743 741 741 737 731 732 732 738 734 737 738 739 744 748 752 756 761 764 769 773
813 809 805 802 798 796 792 789 788 786 781 778 774 770 766 763 756 753 752 748 746 743 740 738 735 734 735 725 723 722 722 721 726 732 732 735 740 745 748 753 757 761 766
810 808 805 804 800 794 789 790 788 784 780 775 773 767 763 755 752 750 746 743 741 738 735 732 728 727 726 723 715 716 715 715 713 714 722 725 732 735 741 744 748 752 757
811 810 805 800 794 791 789 788 786 785 780 775 768 763 755 751 749 746 742 739 736 732 728 724 721 718 717 714 711 706 704 702 700 704 705 713 717 725 732 738 742 745 749